TimeMDT,TemperatureF,Dew PointF,Humidity,Sea Level PressureIn,VisibilityMPH,Wind Direction,Wind SpeedMPH,Gust SpeedMPH,PrecipitationIn,Events,Conditions,WindDirDegrees,DateUTC
12:53 AM,30.0,23.0,75,30.24,10.0,NE,3.5,-,N/A,,Clear,40,2012-10-19 06:53:00
1:53 AM,30.0,24.1,79,30.22,10.0,NE,3.5,-,N/A,,Clear,40,2012-10-19 07:53:00
2:53 AM,28.0,21.9,78,30.20,10.0,Calm,Calm,-,N/A,,Clear,0,2012-10-19 08:53:00
3:53 AM,28.0,23.0,81,30.18,10.0,ENE,5.8,-,N/A,,Clear,60,2012-10-19 09:53:00
4:53 AM,28.9,23.0,78,30.16,10.0,NE,6.9,-,N/A,,Clear,50,2012-10-19 10:53:00
5:53 AM,28.0,23.0,81,30.16,10.0,NE,4.6,-,N/A,,Clear,40,2012-10-19 11:53:00
6:53 AM,30.0,24.1,79,30.16,10.0,NE,4.6,-,N/A,,Clear,50,2012-10-19 12:53:00
7:53 AM,28.9,24.1,82,30.16,10.0,NE,4.6,-,N/A,,Clear,50,2012-10-19 13:53:00
8:53 AM,33.1,26.1,75,30.14,10.0,ENE,6.9,-,N/A,,Clear,70,2012-10-19 14:53:00
9:53 AM,36.0,28.0,73,30.15,10.0,Variable,3.5,-,N/A,,Unknown,0,2012-10-19 15:53:00
10:53 AM,43.0,30.0,60,30.14,10.0,NE,4.6,-,N/A,,Clear,50,2012-10-19 16:53:00
11:53 AM,46.9,28.9,50,30.12,10.0,Calm,Calm,-,N/A,,Clear,0,2012-10-19 17:53:00
12:53 PM,50.0,26.1,39,30.10,10.0,Calm,Calm,-,N/A,,Mostly Cloudy,0,2012-10-19 18:53:00
1:53 PM,51.1,25.0,36,30.06,10.0,Calm,Calm,-,N/A,,Overcast,0,2012-10-19 19:53:00
2:53 PM,54.0,23.0,30,30.03,10.0,Calm,Calm,-,N/A,,Overcast,0,2012-10-19 20:53:00
3:53 PM,54.0,23.0,30,30.00,10.0,SW,3.5,-,N/A,,Overcast,220,2012-10-19 21:53:00
4:53 PM,53.1,26.1,35,30.00,10.0,Calm,Calm,-,0.00,,Overcast,0,2012-10-19 22:53:00
5:53 PM,52.0,28.9,41,29.98,10.0,ENE,5.8,-,N/A,,Overcast,70,2012-10-19 23:53:00
6:53 PM,50.0,28.9,44,29.96,10.0,NE,3.5,-,N/A,,Mostly Cloudy,50,2012-10-20 00:53:00
7:53 PM,50.0,30.0,46,29.94,10.0,ENE,4.6,-,N/A,,Overcast,60,2012-10-20 01:53:00
8:53 PM,46.9,30.0,52,29.93,10.0,North,5.8,-,N/A,,Overcast,10,2012-10-20 02:53:00
9:53 PM,46.9,30.0,52,29.90,10.0,Calm,Calm,-,N/A,,Mostly Cloudy,0,2012-10-20 03:53:00
10:53 PM,48.9,33.1,54,29.83,10.0,SSW,4.6,-,N/A,,Overcast,200,2012-10-20 04:53:00
11:53 PM,54.0,28.0,37,29.80,10.0,Variable,6.9,-,N/A,,Overcast,0,2012-10-20 05:53:00